COSMOS 2251 DEB, 33917

Orbit data source: Space-Track

COSMOS 2251 DEB, 33917 is space debris in LEO originally from a launch on Wed, 16 Jun 1993 UTC launched from the Plesetsk Missile And Space Complex (PKMTR). The debris from Iridium 33, an American commercial communications satellite, has been tracked extensively since its accidental collision with the defunct Russian satellite Cosmos 2251 in 2009. This event, occurring at high speed in low Earth orbit (LEO), generated thousands of pieces of space debris, significantly increasing the risk of further collisions. The Iridium 33 debris cloud has impacted space traffic management and orbital debris mitigation strategies, making it a subject of ongoing study in space situational awareness.

Loading next visibility...
Identifier
33917, 1993-036DW
Orbit
LEO
Country
Flag of CISCIS
Related business
Manufacturer
Unknown
Mission
Spacecraft
Bus & Motor
Unknown
Mass
Unknown
Launch date (UTC)
1993-06-16 (32 years ago)
Launch vehicle
Unknown
Launch site
Plesetsk Missile And Space Complex (PKMTR)
Object type
Payload
Rocket body
Debris
Shape & HBR
Unknown shape, 0.1 m
Radar Cross Section
Small (<0.1 m²)

Expand to show TLE details & history
Last TLE update: 9 hours ago

TLE from 9 hours ago
0 COSMOS 2251 DEB
1 33917U 93036DW  25296.45280597  .00002840  00000-0  22337-2 0  9991
2 33917  74.1088 204.8345 0334395 316.9616  40.5780 13.69166502830451
Epoch: 2025-10-23T10:52Z
TLE epoch observation values (Epoch: 2025-10-23T10:52:02.435Z)
Latitude
-0.00007°
Longitude
9.71248°
Altitude
821.251 km
Speed
7.535 km/s
True Right ascension
13h 39m 20s
True Declination
0° 00' 00"
Sunlit
Object was in daylight at epoch
Visualization orbit readout
Latitude
Unknown
Longitude
Unknown
Altitude
Unknown
Speed
Unknown
Apparent Right ascension
Unknown
Apparent Declination
Unknown
Sunlit
N/A
Visualization observer readout
Local Sidereal Time
14:47:23
Azimuth
Unknown
Elevation
Unknown
Doppler factor
Unknown
Orbital elements
Apogee altitude
1,246.983 km
Perigee altitude
753.524 km
Semi-major axis
7,378.391 km
Eccentricity
0.03344
Inclination
74.1088°
RAAN
204.8345°
Arg. of periapsis
316.9616°
True anomaly
43.15132°
Mean anomaly
40.578°
Eccentric anomaly
41.85644°
Mean motion
3.42453 °/min
Orbital period
105.12 mins
BSTAR
0.0022337

Documentation

Showing up to 5 results
|